Find Starlink 32036

NORAD ID: 60141 Int'l Des: 2024-120 Owner: SPXS Country: US Constellation: starlink operational
LEOCIRCULAR

Live Position

Loading 3D Globe...

About Starlink 32036

Description loading...

Upcoming Passes

Passes for default location (London). Set your location on the main map for personalized predictions.

Altitude History

Loading altitude history...

Two-Line Element Set

1 60141U 24120G 26127.02123485 -.00021921 00000-0 -72846-3 0 9991
2 60141 53.1607 49.2186 0000291 40.0330 320.0692 15.30276842105385
Epoch: May 7, 2026 • Age: 12 hours

Current Status

Altitude 488.3 km
Velocity 7.62 km/s
Sub-Earth Point -40.11°S, 49.67°W
Launch Date Jun 27, 2024
Age 1.8 years
Type internet

Technical Details

Classification Payload
Mass 730.00 kg
Dry Mass 700.00 kg
Total Mass 730.00 kg
Length 0.30 m
Diameter 4.10 m
Span 29.00 m
Shape Box + pan
Manufacturer SPXS
Bus Type Starlink V2M
Phase Status In Orbit
Owner/State SPXS/US

Most Searched